Bartlesville, OK

9:58 AM CDT on May 27, 2018 (GMT -0500)
Bartlesville Municipal

Weather History for KBVO - October, 2012

Change the Weather History Date:

Tuesday, October 9, 2012

  Actual Average Record
Temperature  
Mean Temperature 50 °F -  
Max Temperature 68 °F 75 °F 96 °F (1963)
Min Temperature 33 °F 48 °F 17 °F (2000)
Degree Days  
Heating Degree Days 14    
Moisture  
Dew Point 46 °F    
Average Humidity 74    
Maximum Humidity 96    
Minimum Humidity 52    
Precipitation  
Precipitation 0.00 in - - ()
Sea Level Pressure  
Sea Level Pressure 29.96 in    
Wind  
Wind Speed 4 mph (South)    
Max Wind Speed 14 mph    
Max Gust Speed 24 mph    
Visibility 10 miles    
Events      
Averages and records for this station are not official NWS values.
T = Trace of Precipitation, MM = Missing Value Source: NWS Daily Summary

Daily Weather History Graph

Daily Weather History Graph

Search for Another Location

Airport or City:

Astronomy

Oct. 09, 2012 Rise Set
Actual Time 7:26 AM CDT 6:55 PM CDT
Civil Twilight 7:00 AM CDT 7:20 PM CDT
Nautical Twilight 6:30 AM CDT 7:50 PM CDT
Astronomical Twilight 6:00 AM CDT 8:20 PM CDT
Moon 1:13 AM CDT (10/9) 3:14 PM CDT (10/9)
Length of Visible Light 12h 20m
Length of Day
11h 28m
Last Quarter, 36% of the Moon is Illuminated
Oct 9
Last Quarter
Oct 15
New
Oct 21
First Quarter
Oct 29
Full
Nov 6
Last Quarter

Hourly Weather History & Observations

Time (CDT) Temp. Windchill Dew Point Humidity Pressure Visibility Wind Dir Wind Speed Gust Speed Precip Events Conditions
12:53 AM 37.9 °F - 35.1 °F 89% 30.04 in 10.0 mi Calm Calm - N/A   Clear
1:53 AM 37.9 °F - 35.1 °F 89% 30.02 in 10.0 mi Calm Calm - N/A   Clear
3:53 AM 35.1 °F - 34.0 °F 96% 29.99 in 10.0 mi Calm Calm - N/A   Clear
4:53 AM 33.1 °F - 32.0 °F 96% 29.98 in 10.0 mi Calm Calm - N/A   Clear
5:53 AM 35.1 °F - 34.0 °F 96% 29.97 in 10.0 mi Calm Calm - N/A   Clear
6:53 AM 41.0 °F 38.0 °F 39.0 °F 93% 29.96 in 10.0 mi SSE 4.6 mph - N/A   Clear
7:53 AM 44.1 °F 40.1 °F 41.0 °F 89% 29.96 in 10.0 mi SSE 6.9 mph - N/A   Clear
8:53 AM 51.1 °F - 44.1 °F 77% 29.96 in 10.0 mi SSE 9.2 mph 17.3 mph N/A   Clear
9:53 AM 57.9 °F - 46.0 °F 65% 29.95 in 10.0 mi SSE 11.5 mph 18.4 mph N/A   Clear
10:53 AM 63.0 °F - 48.0 °F 58% 29.93 in 10.0 mi South 11.5 mph 24.2 mph N/A   Clear
11:53 AM 68.0 °F - 50.0 °F 52% 29.91 in 10.0 mi SSE 12.7 mph 21.9 mph N/A   Scattered Clouds
12:53 PM 66.0 °F - 51.1 °F 59% 29.89 in 10.0 mi SSW 13.8 mph 24.2 mph N/A   Overcast
1:51 PM 64.4 °F - 51.8 °F 64% 29.90 in 10.0 mi SSW 12.7 mph - N/A   Overcast
1:53 PM 64.0 °F - 52.0 °F 65% 29.89 in 10.0 mi SSW 12.7 mph 19.6 mph N/A   Overcast
2:53 PM 64.0 °F - 52.0 °F 65% 29.90 in 10.0 mi South 4.6 mph - N/A   Overcast
3:33 PM 64.4 °F - 53.6 °F 68% 29.90 in 10.0 mi South 6.9 mph - N/A   Overcast
3:53 PM 66.0 °F - 53.1 °F 63% 29.90 in 10.0 mi SSW 6.9 mph - N/A   Overcast
4:53 PM 66.0 °F - 53.1 °F 63% 29.91 in 10.0 mi Calm Calm - N/A   Overcast
5:53 PM 64.9 °F - 53.1 °F 65% 29.93 in 10.0 mi SSE 3.5 mph - N/A   Overcast
6:53 PM 63.0 °F - 53.1 °F 70% 29.95 in 10.0 mi Calm Calm - N/A   Overcast
7:53 PM 55.0 °F - 51.1 °F 86% 29.99 in 10.0 mi Calm Calm - N/A   Mostly Cloudy
8:53 PM 51.1 °F - 48.9 °F 92% 30.01 in 10.0 mi Calm Calm - N/A   Mostly Cloudy
9:53 PM 59.0 °F - 50.0 °F 72% 30.06 in 10.0 mi North 4.6 mph - N/A   Overcast
10:53 PM 57.9 °F - 43.0 °F 58% 30.09 in 10.0 mi North 9.2 mph - N/A   Overcast
11:53 PM 54.0 °F - 43.0 °F 66% 30.12 in 10.0 mi Calm Calm - N/A   Mostly Cloudy